EW3117 Weather Reports


time (UTC)temp
C
wind
direction
speed
KPH
gust
KPH
rain 1hr
cm
rain 24hr
cm
rain mn
cm
humidity
%
barometer
mb
20260506181519 22 43 1.6 6.4 0.00 0.00 0.00 51 1020.3
20260506180024 21 304 3.2 9.7 0.00 0.00 0.00 58 1020.2
20260506174528 21 35 3.2 9.7 0.00 0.00 0.00 58 1020.3
20260506173026 20 349 3.2 8.0 0.00 0.00 0.00 59 1020.4
20260506171518 20 1 3.2 8.0 0.00 0.00 0.00 61 1020.5
20260506170020 19 210 1.6 8.0 0.00 0.00 0.00 62 1020.7
20260506164525 18 360 1.6 6.4 0.00 0.00 0.00 64 1020.8
20260506163025 18 13 1.6 6.4 0.00 0.00 0.00 66 1020.9
20260506161510 17 224 0.0 6.4 0.00 0.00 0.00 66 1020.9
20260506160018 17 248 1.6 3.2 0.00 0.00 0.00 69 1021.0
20260506154505 16 52 1.6 6.4 0.00 0.00 0.00 72 1021.0
20260506153004 15 4 1.6 6.4 0.00 0.00 0.00 73 1021.1
20260506151511 14 207 0.0 4.8 0.00 0.00 0.00 78 1021.3
20260506150012 13 164 0.0 3.2 0.00 0.00 0.00 80 1021.1
20260506144519 12 188 1.6 4.8 0.00 0.00 0.00 85 1021.2
20260506143006 11 224 0.0 1.6 0.00 0.00 0.00 89 1021.1
20260506141508 10 190 0.0 0.0 0.00 0.00 0.00 90 1021.1
20260506140018 9 190 0.0 1.6 0.00 0.00 0.00 90 1020.9
20260506134520 9 190 0.0 3.2 0.00 0.00 0.00 89 1020.7
20260506133028 9 190 0.0 1.6 0.00 0.00 0.00 89 1020.5
20260506131506 9 190 0.0 1.6 0.00 0.00 0.00 89 1020.4
20260506130009 9 190 0.0 1.6 0.00 0.00 0.00 88 1020.3
20260506124516 9 202 0.0 3.2 0.00 0.00 0.00 88 1020.2
20260506123018 9 190 0.0 3.2 0.00 0.00 0.00 88 1020.1
20260506121521 9 200 1.6 6.4 0.00 0.00 0.00 88 1020.1
20260506120026 10 198 1.6 4.8 0.00 0.00 0.00 87 1020.0
20260506114529 10 210 1.6 6.4 0.00 0.00 0.00 86 1020.0
20260506113020 10 160 0.0 1.6 0.00 0.00 0.00 86 1019.9
20260506111521 10 160 0.0 3.2 0.00 0.00 0.00 86 1019.8
20260506110024 10 176 0.0 3.2 0.00 0.00 0.00 86 1019.7
20260506104529 10 176 0.0 1.6 0.00 0.00 0.00 86 1019.8
20260506103012 11 176 0.0 0.0 0.00 0.00 0.00 85 1019.7
20260506101519 11 176 0.0 1.6 0.00 0.00 0.00 84 1019.6
20260506100024 11 186 0.0 4.8 0.00 0.00 0.00 83 1019.6
20260506094524 11 152 0.0 4.8 0.00 0.00 0.00 84 1019.7
20260506093026 11 182 0.0 6.4 0.00 0.00 0.00 83 1019.7
20260506091513 11 207 1.6 6.4 0.00 0.00 0.00 84 1019.8
20260506090020 11 191 1.6 6.4 0.00 0.00 0.00 84 1019.8
20260506084524 11 171 0.0 1.6 0.00 0.00 0.00 85 1019.6
20260506083024 11 197 0.0 3.2 0.00 0.00 0.00 85 1019.7
20260506081526 11 212 0.0 4.8 0.00 0.00 0.00 86 1019.8
20260506073022 10 229 1.6 6.4 0.00 0.00 0.00 86 1019.3
20260506071528 10 224 0.0 4.8 0.00 0.00 0.00 86 1019.3
20260506061524 11 208 1.6 4.8 0.00 0.00 0.00 85 1018.7
20260506044536 12 75 0.0 6.4 0.00 0.00 0.00 81 1018.3
20260506043026 12 56 0.0 3.2 0.00 0.00 0.00 80 1018.0
20260506041522 13 42 3.2 8.0 0.00 0.00 0.00 79 1018.0
20260506040023 13 58 1.6 6.4 0.00 0.00 0.00 78 1017.8
20260506034504 13 59 1.6 8.0 0.00 0.00 0.00 77 1017.5
20260506033007 13 1 0.0 4.8 0.00 0.00 0.00 76 1017.2
20260506031515 13 1 1.6 8.0 0.00 0.00 0.00 75 1016.9
20260506030019 14 318 1.6 9.7 0.00 0.00 0.00 74 1016.7
20260506024517 15 245 3.2 9.7 0.00 0.00 0.00 73 1016.6
20260506023008 15 265 4.8 14.5 0.00 0.00 0.00 73 1016.5
20260506021504 15 337 1.6 17.7 0.00 0.00 0.00 73 1016.6
20260506020008 15 347 8.0 17.7 0.00 0.00 0.00 73 1016.6
20260506014506 15 339 3.2 12.9 0.00 0.00 0.00 72 1016.7
20260506013008 16 321 3.2 11.3 0.00 0.00 0.00 71 1016.6
20260506011508 16 290 3.2 11.3 0.00 0.00 0.00 70 1016.6
20260506010007 16 1 4.8 12.9 0.00 0.00 0.00 69 1016.6
20260506004519 16 331 4.8 11.3 0.00 0.00 0.00 69 1016.5
20260506003008 16 11 4.8 12.9 0.00 0.00 0.00 68 1016.5
20260506001509 16 313 6.4 11.3 0.00 0.00 0.00 68 1016.4
20260506000010 16 344 6.4 11.3 0.00 0.00 0.00 67 1016.2
20260505234508 16 330 6.4 14.5 0.00 0.00 0.00 67 1016.3
20260505233009 16 354 3.2 14.5 0.00 0.00 0.00 67 1016.2
20260505231522 17 330 4.8 12.9 0.00 0.00 0.00 66 1016.2
20260505230008 17 23 1.6 8.0 0.00 0.00 0.00 64 1016.2
20260505224517 17 303 3.2 8.0 0.00 0.00 0.00 64 1016.4
20260505223009 17 325 3.2 9.7 0.00 0.00 0.00 65 1016.7
20260505221512 16 1 8.0 14.5 0.00 0.00 0.00 64 1016.7
20260505220011 16 224 4.8 12.9 0.00 0.00 0.00 65 1016.7
20260505214513 16 346 6.4 14.5 0.00 0.00 0.00 66 1016.7
20260505213011 16 293 3.2 16.1 0.00 0.00 0.00 65 1016.8
20260505211512 16 360 3.2 14.5 0.00 0.00 0.00 66 1016.8
20260505210007 16 350 4.8 16.1 0.00 0.00 0.00 67 1016.9
20260505204514 16 316 4.8 14.5 0.00 0.00 0.00 67 1016.9
20260505203023 16 307 6.4 12.9 0.00 0.00 0.00 66 1017.0
20260505201511 16 354 6.4 12.9 0.00 0.00 0.00 64 1016.8
20260505200016 16 320 4.8 9.7 0.00 0.00 0.00 63 1016.9
20260505194511 16 307 3.2 9.7 0.00 0.00 0.00 63 1017.0
20260505193014 16 341 4.8 8.0 0.00 0.00 0.00 64 1017.0
20260505191516 16 236 1.6 8.0 0.00 0.00 0.00 64 1017.0
20260505190028 16 230 1.6 9.7 0.00 0.00 0.00 64 1017.0
20260505184526 16 162 3.2 9.7 0.00 0.00 0.00 67 1016.9
20260505183010 15 241 1.6 6.4 0.00 0.00 0.00 72 1017.0